Location: Zagreb
(45.8000°N, 16.0000°E)
Time: 21:43:40
(UTC+01:00)

Tiros 1 despin weight - Visible Passes

Search period start: 25 January 2022 00:00
Search period end: 04 February 2022 00:00
Orbit: 592 x 641 km, 48.2° (Epoch: 25 January)

Date Brightness Start Highest point End Pass type
(mag) Time Alt. Az. Time Alt. Az. Time Alt. Az.
25 Jan ? 17:27:07 10° WSW 17:31:39 72° SSE 17:36:16 10° ENE visible
25 Jan ? 19:08:44 10° W 19:13:18 65° N 19:13:18 65° N visible
26 Jan ? 17:43:08 10° WSW 17:47:43 84° NNW 17:51:42 14° ENE visible
26 Jan ? 19:24:55 10° W 19:28:44 54° NW 19:28:44 54° NW visible
27 Jan ? 17:59:18 10° W 18:03:52 69° N 18:07:08 19° ENE visible
27 Jan ? 19:41:04 10° WNW 19:44:10 41° WNW 19:44:10 41° WNW visible
28 Jan ? 18:15:29 10° W 18:20:03 64° N 18:22:35 26° ENE visible
28 Jan ? 19:57:09 10° WNW 19:59:37 31° WNW 19:59:37 31° WNW visible
29 Jan ? 18:31:40 10° WNW 18:36:14 67° N 18:38:04 35° ENE visible
29 Jan ? 20:13:16 10° WNW 20:15:06 23° W 20:15:06 23° W visible
30 Jan ? 18:47:46 10° WNW 18:52:23 80° NNE 18:53:36 49° E visible
30 Jan ? 20:29:27 10° WNW 20:30:38 17° W 20:30:38 17° W visible
31 Jan ? 19:03:52 10° WNW 19:08:28 78° SSW 19:09:11 62° SE visible
31 Jan ? 20:45:53 10° W 20:46:14 12° W 20:46:14 12° W visible
01 Feb ? 17:38:23 10° WNW 17:42:57 71° N 17:47:34 10° E visible
01 Feb ? 19:20:00 10° WNW 19:24:28 52° SSW 19:24:51 50° S visible
02 Feb ? 17:54:29 10° WNW 17:59:04 87° NNE 18:03:35 11° ESE visible
02 Feb ? 19:36:14 10° W 19:40:20 32° SW 19:40:38 32° SSW visible
03 Feb ? 18:10:34 10° WNW 18:15:06 68° SSW 18:19:30 11° ESE visible
03 Feb ? 19:52:50 10° W 19:56:06 19° SW 19:56:34 19° SW visible
